www.pogodaiklimat.ru

Погода и климат >> Архив погоды >> Норвегия >> Obrestad Fyr


ПОГОДА в Obrestad Fyr

  • Прогноз погоды в Obrestad Fyr
  • Монитор погоды в Obrestad Fyr
  • Климат города

АРХИВ ПОГОДЫ в Obrestad Fyr

Время (UTC), дата Ветер
(напр.,м/с)
 
Видим.   Явления Облачность Т
(С)
Тd
(С)
f
(%)
Тe
(С)
Тes
(С)
Комфортность P
(гПа)
Po
(гПа)
Тmin
(С)
Tmax
(С)
R
(мм)
R24
(мм)
S
(см)
22 13.05 В 3
{4}
н/о н/о +12.7 +11.1 90 +11 +11 1018.1 1015.1
23 13.05 ЮВ 4
{7}
н/о н/о +17.1 +12.3 73 +17 +17 1017.7 1014.7
00 14.05 ЮВ 7
{9}
н/о н/о +17.7 +12.2 70 +17 +17 1017.4 1014.4
01 14.05 ЮВ 6
{10}
н/о н/о +17.4 +11.0 66 +17 +17 1017.8 1014.8
02 14.05 ЮВ 6
{10}
н/о н/о +16.9 +10.5 66 +16 +16 1018.2 1015.2
03 14.05 ЮВ 4
{8}
н/о н/о +13.1 +10.2 83 +11 +11 1018.7 1015.7
04 14.05 ЮВ 5 н/о н/о +16.2 +10.2 68 +15 +15 1018.9 1015.8
05 14.05 ЮВ 6 н/о н/о +16.2 +10.5 69 +15 +15 1019.0 1016.0
06 14.05 ЮВ 5
{10}
н/о н/о +18.1 +9.9 59 +18 +18 1019.1 1016.1 +11.7
07 14.05 ЮВ 4 н/о н/о +19.5 +10.3 55 +21 +21 комфорт 1019.6 1016.6
08 14.05 Ю 3 н/о н/о +17.2 +9.5 61 +17 +17 1020.1 1017.1
09 14.05 Ю 3
{5}
н/о н/о +16.3 +9.0 62 +16 +16 1020.6 1017.6
10 14.05 Ю 5
{8}
н/о н/о +16.6 +9.9 65 +16 +16 1020.7 1017.7
11 14.05 ЮВ 7
{10}
н/о н/о +17.5 +7.8 53 +17 +17 1021.0 1018.0
12 14.05 Ю 6
{10}
н/о н/о +15.9 +7.7 58 +15 +15 1021.4 1018.3
13 14.05 Ю 7
{9}
н/о н/о +15.9 +8.4 61 +14 +14 1021.4 1018.4
14 14.05 З 5
{8}
н/о н/о +15.0 +9.9 72 +14 +14 1021.9 1018.8
15 14.05 СЗ 4
{6}
н/о н/о +15.9 +8.4 61 +15 +15 1022.0 1019.0
16 14.05 С 5
{6}
н/о н/о +15.8 +9.5 66 +15 +15 1021.9 1018.8
17 14.05 С 5
{6}
н/о н/о +15.8 +9.6 67 +15 +15 1021.7 1018.7
18 14.05 С 4
{9}
н/о н/о +15.9 +9.0 64 +15 +15 1021.6 1018.6 +14.1 +19.7
19 14.05 С 4
{5}
н/о н/о +15.4 +9.2 67 +14 +14 1021.7 1018.7
20 14.05 С 4
{4}
н/о н/о +14.1 +8.7 70 +13 +13 1022.1 1019.1
21 14.05 С 3
{4}
н/о н/о +13.4 +8.7 73 +12 +12 1022.2 1019.1
22 14.05 СВ 4
{4}
н/о н/о +12.5 +8.9 79 +11 +11 1022.1 1019.0
23 14.05 СВ 4
{5}
н/о н/о +11.7 +9.0 83 +10 +10 1022.1 1019.0
00 15.05 СВ 5
{5}
н/о н/о +11.5 +8.6 82 +9 +9 1021.8 1018.7
01 15.05 В 5
{5}
н/о н/о +11.1 +8.3 83 +8 +8 1021.8 1018.8
02 15.05 В 2
{5}
н/о н/о +10.9 +8.0 82 +10 +10 1021.6 1018.5
03 15.05 ЮВ 2
{3}
н/о н/о +10.7 +7.1 78 +9 +9 1021.4 1018.3
04 15.05 ЮВ 4 н/о н/о +13.0 +7.4 69 +11 +11 1021.0 1018.0
05 15.05 В 3 н/о н/о +11.6 +7.8 77 +10 +10 1020.9 1017.8
06 15.05 В 2
{5}
н/о н/о +15.3 +10.4 73 +15 +15 1020.8 1017.7 +10.1
07 15.05 Ю 1 н/о н/о +18.5 +8.0 50 +20 +20 1020.8 1017.8
08 15.05 Ю 2 н/о н/о +19.1 +8.5 50 +20 +20 1020.9 1017.9
09 15.05 Ю 3 н/о н/о +18.3 +9.1 55 +19 +19 1020.9 1017.9
10 15.05 ЮЗ 2 н/о н/о +14.8 +9.5 71 +15 +15 1021.1 1018.1
11 15.05 З 2
{4}
н/о н/о +14.5 +9.8 73 +14 +14 1021.0 1018.0
12 15.05 З 2
{5}
н/о н/о +15.1 +10.8 75 +15 +15 1021.0 1018.0
13 15.05 ЮЗ 2
{3}
н/о н/о +15.9 +10.7 71 +16 +16 1020.8 1017.8
14 15.05 Ю 3
{4}
н/о н/о +15.8 +11.3 75 +15 +15 1020.4 1017.4
15 15.05 Ю 2
{4}
н/о н/о +16.3 +10.2 67 +16 +16 1020.1 1017.1
16 15.05 Ю 2
{4}
н/о н/о +16.6 +10.3 66 +17 +17 1019.7 1016.7
17 15.05 ЮЗ 1
{2}
н/о н/о +16.2 +9.7 65 +17 +17 1019.4 1016.4
18 15.05 ЮЗ 1
{4}
н/о н/о +17.1 +9.9 63 +18 +18 1019.2 1016.2 +13.7 +20.0
19 15.05 З 3
{5}
н/о н/о +13.9 +11.2 84 +13 +13 1019.5 1016.5
20 15.05 СЗ 5
{6}
н/о н/о +12.0 +11.5 97 +9 +9 1020.1 1017.1
21 15.05 СЗ 6
{7}
н/о н/о +10.7 +10.0 95 +9 +9 1020.4 1017.3
22 15.05 С 5
{7}
н/о н/о +9.4 +7 +7 1020.6 1017.5
23 15.05 С 6
{7}
н/о н/о +9.3 +7 +7 1020.6 1017.5
00 16.05 С 7
{9}
н/о н/о +9.8 +9.7 99 +6 +6 1020.8 1017.8
01 16.05 С 8
{10}
н/о н/о +9.6 +9.5 99 +5 +5 1021.1 1018.0
02 16.05 С 10
{12}
н/о н/о +9.4 +8.7 95 +5 +5 1021.4 1018.3
03 16.05 С 9
{13}
н/о н/о +9.4 +8.1 92 +5 +5 1021.4 1018.3
04 16.05 С 10 н/о н/о +9.4 +8.2 92 +5 +5 1021.5 1018.4
05 16.05 С 11 н/о н/о +9.5 +7.9 90 +5 +5 1021.5 1018.4
06 16.05 С 10
{14}
н/о н/о +10.1 +8.3 89 +6 +6 1021.6 1018.5 +9.0
07 16.05 С 13 н/о н/о +10.5 +9.0 90 +6 +6 1022.0 1018.9
08 16.05 С 16
{20}
н/о н/о +9.7 +8.6 93 +4 +4 1022.4 1019.3
09 16.05 С 15
{19}
н/о н/о +10.2 +7.9 86 +5 +5 1022.1 1019.0
10 16.05 С 16
{20}
н/о н/о +10.3 +7.6 83 +5 +5 1022.4 1019.3
11 16.05 С 16
{20}
н/о н/о +10.7 +7.4 80 +6 +6 1022.4 1019.3
12 16.05 С 17
{22}
н/о н/о +10.4 +7.1 80 +5 +5 1022.4 1019.3
13 16.05 С 18
{22}
н/о н/о +10.1 +6.8 80 +4 +4 1022.1 1019.0
14 16.05 С 18
{25}
н/о н/о +10.2 +6.6 78 +5 +5 1021.9 1018.8
15 16.05 С 19
{25}
н/о н/о +9.9 +6.5 79 +4 +4 1021.7 1018.6
16 16.05 С 20
{26}
н/о н/о +9.6 +6.2 79 +3 +3 1021.3 1018.2
17 16.05 С 19
{25}
н/о н/о +9.4 +5.9 79 +3 +3 1021.2 1018.1
18 16.05 С 18
{26}
н/о н/о +9.1 +5.0 75 +3 +3 1021.3 1018.2 +8.9 +10.8
19 16.05 С 17
{23}
н/о н/о +8.8 +5.4 79 +3 +3 1021.5 1018.4
20 16.05 С 15
{23}
н/о н/о +8.3 +4.9 79 +2 +2 1021.6 1018.5
21 16.05 С 14
{22}
н/о н/о +7.9 +4.6 80 +2 +2 1021.7 1018.6
22 16.05 С 15
{21}
н/о н/о +7.8 +4.9 82 +2 +2 1021.8 1018.7
23 16.05 С 15
{21}
н/о н/о +7.3 +4.7 84 +1 +1 1021.6 1018.5
00 17.05 С 14
{23}
н/о н/о +7.4 +5.2 86 +1 +1 1021.6 1018.5
01 17.05 С 15
{19}
н/о н/о +7.0 +4.7 85 0 0 1021.7 1018.5
02 17.05 С 14
{19}
н/о н/о +7.1 +5.1 87 +1 +1 1021.6 1018.4
03 17.05 С 14
{19}
н/о н/о +7.3 +5.2 87 +1 +1 1022.0 1018.9
04 17.05 С 10 н/о н/о +7.3 +5.2 87 +2 +2 1021.9 1018.8
05 17.05 С 10 н/о н/о +7.3 +5.1 86 +2 +2 1022.0 1018.8
06 17.05 С 12
{19}
н/о н/о +7.9 +5.1 82 +2 +2 1021.9 1018.8 +6.8
07 17.05 С 12 н/о н/о +8.4 +5.0 79 +3 +3 1021.9 1018.8
08 17.05 С 11 н/о н/о +9.1 +5.8 80 +4 +4 1021.9 1018.8
09 17.05 С 14 н/о н/о +8.3 +5.2 81 +2 +2 1022.1 1018.9
10 17.05 С 15 н/о н/о +8.6 +5.0 78 +3 +3 1021.9 1018.8
11 17.05 С 15 н/о н/о +9.2 +5.1 76 +4 +4 1021.8 1018.7
12 17.05 С 16
{19}
н/о н/о +8.9 +5.4 79 1021.6 1018.3
13 17.05 С 16 н/о н/о +9.0 +5.8 80 +3 +3 1021.2 1018.1
14 17.05 С 15
{19}
н/о н/о +9.1 +5.8 80 +3 +3 1020.9 1017.8
15 17.05 С 14
{18}
н/о н/о +9.2 +6.2 81 +4 +4 1020.8 1017.6
16 17.05 С 14
{18}
н/о н/о +8.8 +6.1 83
17 17.05 С 14
{18}
н/о н/о +9.1 +6.6 84 +3 +3 1020.3 1017.2
18 17.05 С 11
{20}
н/о н/о +8.8 +6.2 84 +4 +4 1020.3 1017.2 +7.8 +9.5
19 17.05 С 10
{14}
н/о н/о +9.0 +6.4 84 +4 +4 1020.3 1017.2
20 17.05 С 10
{14}
н/о н/о +8.6 +6.6 87 +4 +4 1020.3 1017.1
21 17.05 С 7
{12}
н/о н/о +8.1 +6.4 89 1020.3 1017.2
22 17.05 С 6
{10}
н/о н/о +7.6 +6.3 91 +3 +3 1020.7 1017.6
23 17.05 С 5
{9}
н/о н/о +7.5 +6.5 93 +3 +3 1020.5 1017.4
00 18.05 С 4
{14}
н/о н/о +7.1 +6.3 95 +3 +3 1020.7 1017.5
01 18.05 С 5
{6}
н/о н/о +7.0 +6.4 96
02 18.05 С 3
{6}
н/о н/о +6.5 +6.1 97 +3 +3 1020.9 1017.8
03 18.05 С 3
{5}
н/о н/о +5.7 +5.4 98 +2 +2 1021.3 1018.1
04 18.05 СВ 4 н/о н/о +4.3 +4.2 99 -0 -0 1021.4 1018.2
05 18.05 С 3
{4}
н/о н/о +6.2 +6.1 99 +3 +3 1021.6 1018.5
06 18.05 С 3
{6}
н/о н/о +7.9 +7.6 98 +5 +5 1021.6 1018.5 +3.8 +9.3
07 18.05 С 3
{4}
н/о н/о +10.8 +9.3 90 +9 +9 1021.9 1018.9
08 18.05 С 2
{4}
н/о н/о +10.1 +8.2 88 +9 +9 1022.1 1019.0
09 18.05 СЗ 3
{4}
н/о н/о +9.9 +7.8 87 +8 +8 1022.5 1019.4
10 18.05 СЗ 2
{4}
н/о н/о +9.6 +7.9 89 +8 +8 1022.7 1019.6
11 18.05 СЗ 6
{7}
н/о н/о +9.1 +8.0 93 +5 +5 1023.2 1020.1
12 18.05 СЗ 6
{7}
н/о н/о +9.7 +8.3 91 1022.9 1019.8
13 18.05 СЗ 5
{8}
н/о н/о +10.3 +7.8 84 +7 +7 1023.2 1020.1
14 18.05 СЗ 6
{7}
н/о н/о +9.5 +7.8 89 +6 +6 1023.1 1020.0
15 18.05 СЗ 4
{7}
н/о н/о +10.1 +8.0 87 +7 +7 1023.0 1019.9
16 18.05 СЗ 5
{6}
н/о н/о +9.4 +7.8 90
17 18.05 СЗ 5
{8}
н/о н/о +9.5 +8.1 91 +6 +6 1023.1 1020.0
18 18.05 С 6
{9}
н/о н/о +9.4 +7.7 89 +6 +6 1023.0 1019.9 +7.7 +12.8
19 18.05 С 6
{8}
н/о н/о +8.6 +7.7 94 +5 +5 1023.0 1019.9
20 18.05 С 5
{8}
н/о н/о +8.2 +7.5 95 +4 +4 1023.3 1020.1
21 18.05 С 4
{6}
н/о н/о +7.9 +7.5 97 +4 +4 1023.2 1020.1
22 18.05 С 5
{6}
н/о н/о +7.5 +7.3 99 +3 +3 1023.3 1020.2
23 18.05 С 4
{6}
н/о н/о +7.4 +7.2 99 +4 +4 1023.3 1020.1
00 19.05 С 5
{8}
н/о н/о +7.5 +7.3 99 +3 +3 1023.2 1020.1
01 19.05 СВ 4
{5}
н/о н/о +5.1 +5.1 100 +1 +1 1023.3 1020.1
02 19.05 С 3
{5}
н/о н/о +5.2 +3 +3 1023.1 1019.9
03 19.05 СВ 4
{5}
н/о н/о +4.4 +2 +2 1022.9 1019.8
04 19.05 С 4 н/о н/о +4.7 1023.0 1019.8
05 19.05 С 4 н/о н/о +6.7 1023.3 1020.2
06 19.05 С 5
{7}
н/о н/о +8.2 +8.0 99 +4 +4 1023.7 1020.6 +3.4 0.2
07 19.05 СВ 4 н/о н/о +10.1 +8.6 90 +7 +7 1023.6 1020.5
08 19.05 СЗ 5 н/о н/о +9.0 +8.1 94 +5 +5 1023.7 1020.6
09 19.05 СЗ 5 н/о н/о +9.5 +8.3 92 +6 +6 1023.8 1020.7
10 19.05 СЗ 6 н/о н/о +9.9 +8.4 90 +6 +6 1023.9 1020.8
11 19.05 СЗ 6 н/о н/о +10.0 +8.8 92 +6 +6 1024.0 1020.9
12 19.05 СЗ 5
{7}
н/о н/о +10.5 +8.6 88 +7 +7 1023.9 1020.8
13 19.05 СЗ 4 н/о н/о +11.2 +8.8 85 +9 +9 1023.9 1020.8
14 19.05 СЗ 4 н/о н/о +11.4 +8.6 83 +9 +9 1024.1 1021.0
15 19.05 СЗ 4
{6}
н/о н/о +11.4 +7.8 79 +9 +9 1024.1 1021.0
16 19.05 СЗ 4
{4}
н/о н/о +11.6 +8.4 81 +9 +9 1024.1 1021.0
17 19.05 СЗ 2
{4}
н/о н/о +11.5 +8.0 79 +10 +10 1023.9 1020.8
18 19.05 н/о +10.2 +38 +8 очень
душно
1023.9 1020.8 +7.9 +12.0
19 19.05 З 1
{2}
н/о н/о +11.8 +5.9 67 +12 +12 1024.0 1020.9
20 19.05 ЮЗ 2
{2}
н/о н/о +10.3 +5.8 74 +9 +9 1024.5 1021.4
21 19.05 ЮВ 3
{5}
н/о н/о +8.8 +5.4 79 +6 +6 1023.9 1020.7
22 19.05 Ю 3
{5}
н/о н/о +10.4 +7.5 82 +8 +8 1024.5 1021.4
23 19.05 Ю 3
{5}
н/о н/о +10.2 +8.3 88 +8 +8 1024.8 1021.7
00 20.05 ЮВ 6
{7}
н/о н/о +8.9 +7.7 92 +5 +5 1024.4 1021.3
01 20.05 ЮВ 5
{7}
н/о н/о +9.4 +7.6 89 +6 +6 1024.6 1021.5
02 20.05 ЮВ 7
{8}
н/о н/о +9.3 +6.9 85 +5 +5 1024.5 1021.3
03 20.05 ЮВ 7
{10}
н/о н/о +9.4 +7.2 86 +5 +5 1024.3 1021.2
04 20.05 ЮВ 7
{10}
н/о н/о +9.8 +8.4 91 +6 +6 1024.7 1021.6
05 20.05 ЮВ 7
{10}
н/о н/о +10.3 +8.9 91 +7 +7 1024.8 1021.7
06 20.05 н/о +11.2 +7.2 76 1025.1 1022.0 +8.5 +12.0 0.5
07 20.05 Ю 9
{11}
н/о н/о +12.4 +6.8 69 +9 +9 1025.4 1022.3
08 20.05 Ю 9
{12}
н/о н/о +12.2 +6.7 69 +9 +9 1025.6 1022.5
09 20.05 Ю 11
{14}
н/о н/о +12.4 +8.0 75 +9 +9 1025.9 1022.8
10 20.05 Ю 9
{14}
н/о н/о +10.5 +9.4 93 +6 +6 1026.1 1023.0
11 20.05 Ю 8
{12}
н/о н/о +10.8 +9.6 92 +7 +7 1026.0 1022.9
12 20.05 Ю 8
{14}
н/о н/о +11.2 +9.9 92 +8 +8 1025.9 1022.8
13 20.05 Ю 12
{14}
н/о н/о +10.6 +9.9 95 +6 +6 1026.1 1023.0
14 20.05 Ю 11
{14}
н/о н/о +10.6 +9.9 95 +6 +6 1026.2 1023.1
15 20.05 Ю 9
{13}
н/о н/о +11.0 +10.5 97
16 20.05 Ю 9
{12}
н/о н/о +10.7 +10.7 100 +6 +6 1025.9 1022.8
17 20.05
{11}
н/о +10.7
18 20.05 н/о +10.2 +13.0
19 20.05
{12}
н/о +10.7
20 20.05 ЮВ 9
{12}
н/о н/о +10.6 +8 +8 1025.5 1022.4

 

Местоположение метеостанции Obrestad Fyr (Норвегия): широта 58.65 долгота 5.56 высота над уровнем моря 24 м.

В архиве по умолчанию представлена погода в Obrestad Fyr за последнюю неделю. Архивные данные за месяц целиком и за предыдущие месяцы, начиная с января 2011 года, Вы можете получить, выбрав интересующий диапазон дат из раскрывающегося списка и нажав кнопку "Ввод!".


*Определитесь, кто Вы:
робот инопланетянин человек

Внимание! Время в таблицах - всемирное. Для получения местного времени необходимо прибавить поправку, которая в Obrestad Fyr равна 1 ч.

Смотрите также архив погоды в соседних городах и на ближайших метеорологических станциях:

Погода в Saerheim (Норвегия) (13 км)
Погода в Stavanger Lufthavn (Норвегия) (26 км)
Погода в Eigeroya (Норвегия) (29 км)
Погода в Stavanger (Норвегия) (36 км)
Погода в Kvitsoy (Норвегия) (47 км)
Погода в Liarvatn (Норвегия) (55 км)
Погода в Eik-Hove (Норвегия) (57 км)
Погода в Fister-Sigmundstad (Норвегия) (64 км)
Погода в Haugesund Lufthavn (Норвегия) (81 км)
Погода в Utsira Fyr (Норвегия) (83 км)

Пояснения к столбцам:

Ветер - указаны скорость ветра в м/с - средняя за 10 мин, порывы в срок и между сроками (в фигурных скобках) и направление, откуда дует ветер: С - северный, СВ - северо-восточный, В - восточный, ЮВ - юго-восточный, Ю - южный, ЮЗ - юго-западный, З - западный, СЗ - северо-западный.
Видимость - горизонтальная дальность видимости в метрах или километрах. При видимости от 1 до 10 км при отсутствии осадков обычно наблюдается дымка, при ухудшении видимости до 1 км и менее - туман. В сухую погоду видимость может ухудшаться дымом, пылью или мглою.
Явления - указаны атмосферные явления, наблюдавшиеся в срок или в последний час перед сроком; фигурными скобками обозначены явления, наблюдавшиеся между сроками (за 1-3 часа до срока); квадратными скобками обозначены град или гололедные отложения с указанием их диаметра в мм.
Облачность - указаны через наклонную черту общая и нижняя облачность в баллах и высота нижней границы облаков в метрах; квадратными скобками обозначены формы облаков: Ci - перистые, Cs - перисто-слоистые, Cc - перисто-кучевые, Ac - высококучевые, As - высокослоистые, Sc - слоисто-кучевые, Ns - слоисто-дождевые, Cu - кучевые, Cb - кучево-дождевые. Подробнее классификацию облаков см. в Атласе облаков (PDF).
T - Температура воздуха - температура, измеренная на высоте 2 м над землей.
Td - Температура точки росы - температура, при понижении до которой содержащийся в воздухе водяной пар достигнет насыщения.
f - Относительная влажность воздуха - влажноcть воздуха, измеренная на высоте 2 м над землей.
Te - Эффективная температура - температура, которую ощущает одетый по сезону человек в тени. Характеристика душности погоды. При расчете учитывается влияние влажности воздуха и скорости ветра на теплоощущения человека.
Tes - Эффективная температура на солнце - температура, которую ощущает человек, с поправкой на солнечный нагрев. Характеристика знойности погоды. Зависит от высоты солнца над горизонтом, облачности и скорости ветра. Ночью, в пасмурную погоду, а также при ветре 12 м/с и более поправка равна нулю.
P - Атмосферное давление - приведенное к уровню моря атмосферное давление.
Po - Атмосферное давление - измеренное на уровне метеостанции атмосферное давление.
Tmin - Минимальная температура - минимум температуры воздуха на высоте 2 м над землей.
Tmax - Максимальная температура - максимум температуры воздуха на высоте 2 м над землей.
R - Количество осадков - Количество выпавших осадков за период времени, мм. При наведении курсора мыши на число - период времени, за который выпало указанное количество осадков.
R24 - Количество осадков - Количество выпавших осадков за 24 часа, мм.
S - Снежный покров - Высота снежного покрова, см. При наведении курсора мыши на число - состояние снежного покрова и степень покрытия местности в баллах.